Time,TemperatureF,DewpointF,PressureIn,WindDirection,WindDirectionDegrees,WindSpeedMPH,WindSpeedGustMPH,Humidity,HourlyPrecipIn,Conditions,Clouds,dailyrainin,SoftwareType,DateUTC
2013-02-22 00:00:00,37.8,34.6,30.19,West,270,0.0,0.0,88,0.00,,,0.00,WeatherDisplay:10.37,2013-02-22 08:00:00,
2013-02-22 00:05:00,37.9,34.7,30.19,West,270,0.0,0.0,88,0.00,,,0.00,WeatherDisplay:10.37,2013-02-22 08:05:00,
2013-02-22 00:10:00,37.9,34.7,30.19,West,270,0.0,0.0,88,0.00,,,0.00,WeatherDisplay:10.37,2013-02-22 08:10:00,
2013-02-22 00:15:00,37.6,34.4,30.19,West,270,0.0,0.0,88,0.00,,,0.00,WeatherDisplay:10.37,2013-02-22 08:15:00,
2013-02-22 00:20:00,37.5,34.3,30.19,West,270,0.0,0.0,88,0.00,,,0.00,WeatherDisplay:10.37,2013-02-22 08:20:00,
2013-02-22 00:25:00,37.3,34.1,30.19,West,270,0.0,0.0,88,0.00,,,0.00,WeatherDisplay:10.37,2013-02-22 08:25:00,
2013-02-22 00:30:00,37.1,33.9,30.19,West,270,0.0,0.0,88,0.00,,,0.00,WeatherDisplay:10.37,2013-02-22 08:30:00,
2013-02-22 00:35:00,36.8,33.6,30.19,West,270,0.0,0.0,88,0.00,,,0.00,WeatherDisplay:10.37,2013-02-22 08:35:00,
2013-02-22 00:40:00,36.7,33.5,30.20,West,270,0.0,0.0,88,0.00,,,0.00,WeatherDisplay:10.37,2013-02-22 08:40:00,
2013-02-22 00:46:00,36.7,33.8,30.20,West,270,0.0,0.0,89,0.00,,,0.00,WeatherDisplay:10.37,2013-02-22 08:46:00,
2013-02-22 00:51:00,37.2,34.5,30.20,West,270,0.0,0.0,90,0.00,,,0.00,WeatherDisplay:10.37,2013-02-22 08:51:00,
2013-02-22 00:56:00,37.5,34.8,30.20,West,270,0.0,0.0,90,0.00,,,0.00,WeatherDisplay:10.37,2013-02-22 08:56:00,
2013-02-22 01:01:00,37.3,34.6,30.20,West,270,0.0,0.0,90,0.00,,,0.00,WeatherDisplay:10.37,2013-02-22 09:01:00,
2013-02-22 01:06:00,37.1,34.2,30.20,West,270,0.0,0.0,89,0.00,,,0.00,WeatherDisplay:10.37,2013-02-22 09:06:00,
2013-02-22 01:11:00,36.8,33.9,30.20,West,270,0.0,0.0,89,0.00,,,0.00,WeatherDisplay:10.37,2013-02-22 09:11:00,
2013-02-22 01:16:00,36.7,34.0,30.20,West,270,0.0,0.0,90,0.00,,,0.00,WeatherDisplay:10.37,2013-02-22 09:16:00,
2013-02-22 01:21:00,36.6,33.9,30.20,West,271,0.0,0.0,90,0.00,,,0.00,WeatherDisplay:10.37,2013-02-22 09:21:00,
2013-02-22 01:26:00,36.6,33.9,30.20,West,271,0.0,0.0,90,0.00,,,0.00,WeatherDisplay:10.37,2013-02-22 09:26:00,
2013-02-22 01:31:00,36.5,33.8,30.20,West,270,0.0,0.0,90,0.00,,,0.00,WeatherDisplay:10.37,2013-02-22 09:31:00,
2013-02-22 01:36:00,36.5,33.8,30.20,West,270,0.0,0.0,90,0.00,,,0.00,WeatherDisplay:10.37,2013-02-22 09:36:00,
2013-02-22 01:41:00,36.4,33.7,30.20,West,270,0.0,0.0,90,0.00,,,0.00,WeatherDisplay:10.37,2013-02-22 09:41:00,
2013-02-22 01:46:00,36.3,33.6,30.20,West,270,0.0,0.0,90,0.00,,,0.00,WeatherDisplay:10.37,2013-02-22 09:46:00,
2013-02-22 01:51:00,36.2,33.5,30.20,West,270,0.0,0.0,90,0.00,,,0.00,WeatherDisplay:10.37,2013-02-22 09:51:00,
2013-02-22 01:56:00,36.1,33.5,30.20,West,270,0.0,0.0,90,0.00,,,0.00,WeatherDisplay:10.37,2013-02-22 09:56:00,
2013-02-22 02:01:00,36.1,33.7,30.20,West,270,0.0,0.0,91,0.00,,,0.00,WeatherDisplay:10.37,2013-02-22 10:01:00,
2013-02-22 02:06:00,35.9,33.3,30.20,West,270,0.0,0.0,90,0.00,,,0.00,WeatherDisplay:10.37,2013-02-22 10:06:00,
2013-02-22 02:11:00,35.8,33.2,30.20,West,271,0.0,0.0,90,0.00,,,0.00,WeatherDisplay:10.37,2013-02-22 10:11:00,
2013-02-22 02:16:00,35.6,33.0,30.20,West,270,0.0,0.0,90,0.00,,,0.00,WeatherDisplay:10.37,2013-02-22 10:16:00,
2013-02-22 02:21:00,35.6,33.0,30.20,West,270,0.0,0.0,90,0.00,,,0.00,WeatherDisplay:10.37,2013-02-22 10:21:00,
2013-02-22 02:26:00,35.6,33.2,30.20,West,270,0.0,0.0,91,0.00,,,0.00,WeatherDisplay:10.37,2013-02-22 10:26:00,
2013-02-22 02:31:00,35.5,33.1,30.20,West,270,0.0,0.0,91,0.00,,,0.00,WeatherDisplay:10.37,2013-02-22 10:31:00,
2013-02-22 02:36:00,35.3,32.7,30.20,West,270,0.0,0.0,90,0.00,,,0.00,WeatherDisplay:10.37,2013-02-22 10:36:00,
2013-02-22 02:41:00,35.1,32.5,30.20,West,271,0.0,0.0,90,0.00,,,0.00,WeatherDisplay:10.37,2013-02-22 10:41:00,
2013-02-22 02:46:00,35.0,32.6,30.19,West,270,0.0,0.0,91,0.00,,,0.00,WeatherDisplay:10.37,2013-02-22 10:46:00,
2013-02-22 02:51:00,35.0,32.6,30.19,West,270,0.0,0.0,91,0.00,,,0.00,WeatherDisplay:10.37,2013-02-22 10:51:00,
2013-02-22 02:56:00,35.1,32.7,30.19,West,270,0.0,0.0,91,0.00,,,0.00,WeatherDisplay:10.37,2013-02-22 10:56:00,
2013-02-22 03:01:00,35.1,32.7,30.19,West,270,0.0,0.0,91,0.00,,,0.00,WeatherDisplay:10.37,2013-02-22 11:01:00,
2013-02-22 03:06:00,34.9,32.5,30.19,West,270,0.0,0.0,91,0.00,,,0.00,WeatherDisplay:10.37,2013-02-22 11:06:00,
2013-02-22 03:11:00,34.8,32.4,30.19,West,271,0.0,0.0,91,0.00,,,0.00,WeatherDisplay:10.37,2013-02-22 11:11:00,
2013-02-22 03:16:00,34.7,32.3,30.19,West,270,0.0,0.0,91,0.00,,,0.00,WeatherDisplay:10.37,2013-02-22 11:16:00,
2013-02-22 03:21:00,34.6,32.2,30.19,West,270,0.0,0.0,91,0.00,,,0.00,WeatherDisplay:10.37,2013-02-22 11:21:00,
2013-02-22 03:26:00,34.9,32.8,30.19,West,271,0.0,0.0,92,0.00,,,0.00,WeatherDisplay:10.37,2013-02-22 11:26:00,
2013-02-22 03:31:00,35.1,33.0,30.19,West,270,0.0,0.0,92,0.00,,,0.00,WeatherDisplay:10.37,2013-02-22 11:31:00,
2013-02-22 03:36:00,34.9,32.5,30.19,West,270,0.0,0.0,91,0.00,,,0.00,WeatherDisplay:10.37,2013-02-22 11:36:00,
2013-02-22 03:41:00,34.9,32.5,30.20,West,270,0.0,0.0,91,0.00,,,0.00,WeatherDisplay:10.37,2013-02-22 11:41:00,
2013-02-22 03:46:00,34.8,32.4,30.20,West,270,0.0,0.0,91,0.00,,,0.00,WeatherDisplay:10.37,2013-02-22 11:46:00,
2013-02-22 03:51:00,34.7,32.3,30.20,West,270,0.0,0.0,91,0.00,,,0.00,WeatherDisplay:10.37,2013-02-22 11:51:00,
2013-02-22 03:56:00,34.6,32.5,30.20,West,270,0.0,0.0,92,0.00,,,0.00,WeatherDisplay:10.37,2013-02-22 11:56:00,
2013-02-22 04:01:00,34.5,32.4,30.20,West,270,0.0,0.0,92,0.00,,,0.00,WeatherDisplay:10.37,2013-02-22 12:01:00,
2013-02-22 04:06:00,34.4,32.3,30.20,West,270,0.0,0.0,92,0.00,,,0.00,WeatherDisplay:10.37,2013-02-22 12:06:00,
2013-02-22 04:11:00,34.4,32.3,30.20,West,270,0.0,0.0,92,0.00,,,0.00,WeatherDisplay:10.37,2013-02-22 12:11:00,
2013-02-22 04:17:00,34.4,32.3,30.20,West,270,0.0,0.0,92,0.00,,,0.00,WeatherDisplay:10.37,2013-02-22 12:17:00,
2013-02-22 04:22:00,34.4,32.3,30.20,West,271,0.0,0.0,92,0.00,,,0.00,WeatherDisplay:10.37,2013-02-22 12:22:00,
2013-02-22 04:27:00,34.4,32.3,30.20,West,270,0.0,0.0,92,0.00,,,0.00,WeatherDisplay:10.37,2013-02-22 12:27:00,
2013-02-22 04:32:00,34.3,32.2,30.20,West,270,0.0,0.0,92,0.00,,,0.00,WeatherDisplay:10.37,2013-02-22 12:32:00,
2013-02-22 04:37:00,34.2,32.1,30.21,West,270,0.0,0.0,92,0.00,,,0.00,WeatherDisplay:10.37,2013-02-22 12:37:00,
2013-02-22 04:42:00,34.1,32.0,30.21,West,270,0.0,0.0,92,0.00,,,0.00,WeatherDisplay:10.37,2013-02-22 12:42:00,
2013-02-22 04:47:00,34.0,31.9,30.21,West,270,0.0,0.0,92,0.00,,,0.00,WeatherDisplay:10.37,2013-02-22 12:47:00,
2013-02-22 04:52:00,34.0,31.9,30.21,West,270,0.0,0.0,92,0.00,,,0.00,WeatherDisplay:10.37,2013-02-22 12:52:00,
2013-02-22 04:57:00,33.9,31.8,30.22,West,270,0.0,0.0,92,0.00,,,0.00,WeatherDisplay:10.37,2013-02-22 12:57:00,
2013-02-22 05:02:00,33.9,31.8,30.22,West,270,0.0,0.0,92,0.00,,,0.00,WeatherDisplay:10.37,2013-02-22 13:02:00,
2013-02-22 05:07:00,33.9,31.8,30.21,West,270,0.0,0.0,92,0.00,,,0.00,WeatherDisplay:10.37,2013-02-22 13:07:00,
2013-02-22 05:12:00,33.7,31.6,30.21,West,270,0.0,0.0,92,0.00,,,0.00,WeatherDisplay:10.37,2013-02-22 13:12:00,
2013-02-22 05:17:00,33.7,31.6,30.21,West,271,0.0,0.0,92,0.00,,,0.00,WeatherDisplay:10.37,2013-02-22 13:17:00,
2013-02-22 05:22:00,33.7,31.6,30.21,West,270,0.0,0.0,92,0.00,,,0.00,WeatherDisplay:10.37,2013-02-22 13:22:00,
2013-02-22 05:27:00,33.7,31.6,30.21,West,270,0.0,0.0,92,0.00,,,0.00,WeatherDisplay:10.37,2013-02-22 13:27:00,
2013-02-22 05:32:00,33.6,31.5,30.22,West,269,0.0,0.0,92,0.00,,,0.00,WeatherDisplay:10.37,2013-02-22 13:32:00,
2013-02-22 05:37:00,33.6,31.5,30.22,West,270,0.0,0.0,92,0.00,,,0.00,WeatherDisplay:10.37,2013-02-22 13:37:00,
2013-02-22 05:42:00,33.6,31.5,30.23,West,270,0.0,0.0,92,0.00,,,0.00,WeatherDisplay:10.37,2013-02-22 13:42:00,
2013-02-22 05:47:00,33.6,31.5,30.23,West,270,0.0,0.0,92,0.00,,,0.00,WeatherDisplay:10.37,2013-02-22 13:47:00,
2013-02-22 05:52:00,33.6,31.5,30.23,West,270,0.0,0.0,92,0.00,,,0.00,WeatherDisplay:10.37,2013-02-22 13:52:00,
2013-02-22 05:57:00,33.8,32.0,30.23,West,270,0.0,0.0,93,0.00,,,0.00,WeatherDisplay:10.37,2013-02-22 13:57:00,
2013-02-22 06:02:00,33.8,32.0,30.23,West,270,0.0,0.0,93,0.00,,,0.00,WeatherDisplay:10.37,2013-02-22 14:02:00,
2013-02-22 06:07:00,33.8,32.0,30.23,West,270,0.0,0.0,93,0.00,,,0.00,WeatherDisplay:10.37,2013-02-22 14:07:00,
2013-02-22 06:12:00,33.8,32.0,30.23,West,270,0.0,0.0,93,0.00,,,0.00,WeatherDisplay:10.37,2013-02-22 14:12:00,
2013-02-22 06:17:00,33.8,32.0,30.24,West,270,0.0,0.0,93,0.00,,,0.00,WeatherDisplay:10.37,2013-02-22 14:17:00,
2013-02-22 06:22:00,33.7,31.9,30.24,West,270,0.0,0.0,93,0.00,CLR,,0.00,WeatherDisplay:10.37,2013-02-22 14:22:00,
2013-02-22 06:27:00,33.6,31.8,30.23,West,270,0.0,0.0,93,0.00,CLR,,0.00,WeatherDisplay:10.37,2013-02-22 14:27:00,
2013-02-22 06:32:00,33.5,31.7,30.24,West,270,0.0,0.0,93,0.00,CLR,,0.00,WeatherDisplay:10.37,2013-02-22 14:32:00,
2013-02-22 06:37:00,33.4,31.6,30.23,West,270,0.0,0.0,93,0.00,CLR,,0.00,WeatherDisplay:10.37,2013-02-22 14:37:00,
2013-02-22 06:42:00,33.5,31.7,30.24,West,270,0.0,0.0,93,0.00,CLR,,0.00,WeatherDisplay:10.37,2013-02-22 14:42:00,
2013-02-22 06:47:00,33.4,31.6,30.24,West,270,0.0,0.0,93,0.00,CLR,,0.00,WeatherDisplay:10.37,2013-02-22 14:47:00,
2013-02-22 06:52:00,33.4,31.6,30.24,West,270,0.0,0.0,93,0.00,CLR,,0.00,WeatherDisplay:10.37,2013-02-22 14:52:00,
2013-02-22 06:57:00,33.5,31.7,30.24,West,270,0.0,0.0,93,0.00,CLR,,0.00,WeatherDisplay:10.37,2013-02-22 14:57:00,
2013-02-22 07:02:00,33.5,31.7,30.25,West,270,0.0,0.0,93,0.00,CLR,,0.00,WeatherDisplay:10.37,2013-02-22 15:02:00,
2013-02-22 07:07:00,33.8,32.0,30.24,West,270,0.0,0.0,93,0.00,CLR,,0.00,WeatherDisplay:10.37,2013-02-22 15:07:00,
2013-02-22 07:12:00,33.9,32.1,30.25,West,270,0.0,0.0,93,0.00,CLR,,0.00,WeatherDisplay:10.37,2013-02-22 15:12:00,
2013-02-22 07:17:00,33.9,32.1,30.25,West,270,0.0,0.0,93,0.00,CLR,,0.00,WeatherDisplay:10.37,2013-02-22 15:17:00,
2013-02-22 07:22:00,33.9,32.1,30.25,West,270,0.0,0.0,93,0.00,CLR,,0.00,WeatherDisplay:10.37,2013-02-22 15:22:00,
2013-02-22 07:27:00,33.9,32.1,30.25,West,270,0.0,0.0,93,0.00,CLR,,0.00,WeatherDisplay:10.37,2013-02-22 15:27:00,
2013-02-22 07:32:00,34.0,32.2,30.25,West,270,0.0,0.0,93,0.00,CLR,,0.00,WeatherDisplay:10.37,2013-02-22 15:32:00,
2013-02-22 07:37:00,34.0,32.2,30.26,West,269,0.0,0.0,93,0.00,CLR,,0.00,WeatherDisplay:10.37,2013-02-22 15:37:00,
2013-02-22 07:43:00,34.1,32.3,30.26,West,270,0.0,0.0,93,0.00,CLR,,0.00,WeatherDisplay:10.37,2013-02-22 15:43:00,
2013-02-22 07:48:00,34.4,32.6,30.26,West,271,0.0,0.0,93,0.00,CLR,,0.00,WeatherDisplay:10.37,2013-02-22 15:48:00,
2013-02-22 07:53:00,34.7,32.9,30.26,West,270,0.0,0.0,93,0.00,CLR,,0.00,WeatherDisplay:10.37,2013-02-22 15:53:00,
2013-02-22 07:58:00,35.0,33.2,30.26,West,270,0.0,0.0,93,0.00,CLR,,0.00,WeatherDisplay:10.37,2013-02-22 15:58:00,
2013-02-22 08:03:00,35.4,33.6,30.26,West,270,0.0,0.0,93,0.00,CLR,,0.00,WeatherDisplay:10.37,2013-02-22 16:03:00,
2013-02-22 08:08:00,35.7,33.9,30.27,West,270,0.0,0.0,93,0.00,CLR,,0.00,WeatherDisplay:10.37,2013-02-22 16:08:00,
2013-02-22 08:13:00,36.0,34.2,30.26,West,270,0.0,0.0,93,0.00,CLR,,0.00,WeatherDisplay:10.37,2013-02-22 16:13:00,
2013-02-22 08:18:00,36.3,34.5,30.26,West,270,0.0,0.0,93,0.00,CLR,,0.00,WeatherDisplay:10.37,2013-02-22 16:18:00,
2013-02-22 08:23:00,36.9,35.1,30.26,West,270,0.0,0.0,93,0.00,CLR,,0.00,WeatherDisplay:10.37,2013-02-22 16:23:00,
2013-02-22 08:28:00,37.5,35.7,30.27,West,270,0.0,0.0,93,0.00,CLR,,0.00,WeatherDisplay:10.37,2013-02-22 16:28:00,
2013-02-22 08:33:00,38.1,36.3,30.27,West,270,0.0,0.0,93,0.00,CLR,,0.00,WeatherDisplay:10.37,2013-02-22 16:33:00,
2013-02-22 08:38:00,38.7,36.9,30.27,West,270,0.0,0.0,93,0.00,CLR,,0.00,WeatherDisplay:10.37,2013-02-22 16:38:00,
2013-02-22 08:43:00,39.3,37.4,30.27,West,270,0.0,0.0,93,0.00,CLR,,0.00,WeatherDisplay:10.37,2013-02-22 16:43:00,
2013-02-22 08:48:00,40.0,38.1,30.27,West,270,0.0,0.0,93,0.00,CLR,,0.00,WeatherDisplay:10.37,2013-02-22 16:48:00,
2013-02-22 08:53:00,40.5,38.6,30.27,West,270,0.0,0.0,93,0.00,CLR,,0.00,WeatherDisplay:10.37,2013-02-22 16:53:00,
2013-02-22 08:58:00,41.0,39.1,30.27,West,270,0.0,0.0,93,0.00,CLR,,0.00,WeatherDisplay:10.37,2013-02-22 16:58:00,
2013-02-22 09:03:00,41.4,39.5,30.26,West,270,0.0,0.0,93,0.00,CLR,,0.00,WeatherDisplay:10.37,2013-02-22 17:03:00,
2013-02-22 09:08:00,41.9,40.0,30.26,West,271,1.2,0.0,93,0.00,CLR,,0.00,WeatherDisplay:10.37,2013-02-22 17:08:00,
2013-02-22 09:13:00,42.6,40.7,30.26,West,271,1.2,0.0,93,0.00,CLR,,0.00,WeatherDisplay:10.37,2013-02-22 17:13:00,
2013-02-22 09:18:00,43.2,41.3,30.26,NE,39,0.0,0.0,93,0.00,CLR,,0.00,WeatherDisplay:10.37,2013-02-22 17:18:00,
2013-02-22 09:23:00,44.0,42.1,30.26,NE,38,0.0,0.0,93,0.00,CLR,,0.00,WeatherDisplay:10.37,2013-02-22 17:23:00,
2013-02-22 09:28:00,44.7,42.5,30.26,NE,38,0.0,0.0,92,0.00,CLR,,0.00,WeatherDisplay:10.37,2013-02-22 17:28:00,
2013-02-22 09:33:00,45.7,42.1,30.27,NNE,31,2.3,2.3,87,0.00,CLR,,0.00,WeatherDisplay:10.37,2013-02-22 17:33:00,
2013-02-22 09:38:00,47.0,42.1,30.26,NNE,31,0.0,0.0,83,0.00,CLR,,0.00,WeatherDisplay:10.37,2013-02-22 17:38:00,
2013-02-22 09:43:00,47.9,41.7,30.26,NNE,20,1.2,0.0,79,0.00,CLR,,0.00,WeatherDisplay:10.37,2013-02-22 17:43:00,
2013-02-22 09:48:00,48.7,41.8,30.26,WSW,239,1.2,1.2,77,0.00,CLR,,0.00,WeatherDisplay:10.37,2013-02-22 17:48:00,
2013-02-22 09:53:00,49.5,41.6,30.26,ENE,60,2.3,2.3,74,0.00,CLR,,0.00,WeatherDisplay:10.37,2013-02-22 17:53:00,
2013-02-22 09:58:00,50.4,41.3,30.26,NNE,25,2.3,2.3,71,0.00,CLR,,0.00,WeatherDisplay:10.37,2013-02-22 17:58:00,
2013-02-22 10:03:00,51.2,41.4,30.26,NE,43,0.0,0.0,69,0.00,CLR,,0.00,WeatherDisplay:10.37,2013-02-22 18:03:00,
2013-02-22 10:08:00,51.9,42.0,30.26,NE,43,2.3,2.3,69,0.00,CLR,,0.00,WeatherDisplay:10.37,2013-02-22 18:08:00,
2013-02-22 10:13:00,52.6,42.3,30.26,NW,314,1.2,0.0,68,0.00,CLR,,0.00,WeatherDisplay:10.37,2013-02-22 18:13:00,
2013-02-22 10:18:00,53.4,42.7,30.26,NE,43,3.5,3.5,67,0.00,CLR,,0.00,WeatherDisplay:10.37,2013-02-22 18:18:00,
2013-02-22 10:23:00,53.8,42.3,30.26,East,81,2.3,2.3,65,0.00,CLR,,0.00,WeatherDisplay:10.37,2013-02-22 18:23:00,
2013-02-22 10:28:00,54.5,43.0,30.26,NNE,33,3.5,3.5,65,0.00,CLR,,0.00,WeatherDisplay:10.37,2013-02-22 18:28:00,
2013-02-22 10:33:00,54.9,42.5,30.26,NNE,20,4.6,4.6,63,0.00,CLR,,0.00,WeatherDisplay:10.37,2013-02-22 18:33:00,
2013-02-22 10:38:00,54.9,42.9,30.26,ENE,70,2.3,2.3,64,0.00,CLR,,0.00,WeatherDisplay:10.37,2013-02-22 18:38:00,
2013-02-22 10:43:00,55.1,42.7,30.27,North,354,4.6,4.6,63,0.00,CLR,,0.00,WeatherDisplay:10.37,2013-02-22 18:43:00,
2013-02-22 10:48:00,55.0,42.6,30.26,ENE,68,3.5,3.5,63,0.00,CLR,,0.00,WeatherDisplay:10.37,2013-02-22 18:48:00,
2013-02-22 10:53:00,55.4,43.4,30.26,NNW,335,2.3,2.3,64,0.00,CLR,,0.00,WeatherDisplay:10.37,2013-02-22 18:53:00,
2013-02-22 10:58:00,56.3,43.9,30.27,ENE,61,2.0,2.0,63,0.00,CLR,,0.00,WeatherDisplay:10.37,2013-02-22 18:58:00,
2013-02-22 11:03:00,56.8,43.1,30.26,East,83,3.5,3.5,60,0.00,CLR,,0.00,WeatherDisplay:10.37,2013-02-22 19:03:00,
2013-02-22 11:08:00,56.7,43.0,30.26,NE,45,3.5,3.5,60,0.00,CLR,,0.00,WeatherDisplay:10.37,2013-02-22 19:08:00,
2013-02-22 11:13:00,57.1,43.8,30.26,NNE,22,4.0,4.0,61,0.00,CLR,,0.00,WeatherDisplay:10.37,2013-02-22 19:13:00,
2013-02-22 11:18:00,57.4,43.6,30.26,ENE,68,3.5,3.5,60,0.00,CLR,,0.00,WeatherDisplay:10.37,2013-02-22 19:18:00,
2013-02-22 11:23:00,57.8,43.1,30.26,NNE,28,3.0,3.0,58,0.00,CLR,,0.00,WeatherDisplay:10.37,2013-02-22 19:23:00,
2013-02-22 11:28:00,58.2,43.5,30.25,ENE,62,2.0,2.0,58,0.00,CLR,,0.00,WeatherDisplay:10.37,2013-02-22 19:28:00,
2013-02-22 11:33:00,58.4,42.8,30.25,ENE,62,3.5,3.5,56,0.00,CLR,,0.00,WeatherDisplay:10.37,2013-02-22 19:33:00,
2013-02-22 11:38:00,59.0,43.8,30.25,NE,40,3.0,3.0,57,0.00,CLR,,0.00,WeatherDisplay:10.37,2013-02-22 19:38:00,
2013-02-22 11:43:00,59.3,42.6,30.25,ENE,62,2.3,2.3,54,0.00,CLR,,0.00,WeatherDisplay:10.37,2013-02-22 19:43:00,
2013-02-22 11:48:00,59.6,43.9,30.25,NNE,29,2.0,2.0,56,0.00,CLR,,0.00,WeatherDisplay:10.37,2013-02-22 19:48:00,
2013-02-22 11:53:00,60.3,43.6,30.24,North,352,2.3,2.3,54,0.00,CLR,,0.00,WeatherDisplay:10.37,2013-02-22 19:53:00,
2013-02-22 11:58:00,60.8,43.1,30.24,NE,49,2.3,2.3,52,0.00,CLR,,0.00,WeatherDisplay:10.37,2013-02-22 19:58:00,
2013-02-22 12:03:00,61.4,43.6,30.24,North,3,2.3,2.3,52,0.00,CLR,,0.00,WeatherDisplay:10.37,2013-02-22 20:03:00,
2013-02-22 12:08:00,61.9,44.1,30.24,NNE,30,4.6,4.6,52,0.00,CLR,,0.00,WeatherDisplay:10.37,2013-02-22 20:08:00,
2013-02-22 12:13:00,61.5,45.2,30.24,NNE,29,2.3,2.3,55,0.00,CLR,,0.00,WeatherDisplay:10.37,2013-02-22 20:13:00,
2013-02-22 12:18:00,61.5,44.7,30.23,NE,42,4.6,4.6,54,0.00,CLR,,0.00,WeatherDisplay:10.37,2013-02-22 20:18:00,
2013-02-22 12:23:00,61.2,44.9,30.23,NE,42,2.3,2.3,55,0.00,CLR,,0.00,WeatherDisplay:10.37,2013-02-22 20:23:00,
2013-02-22 12:28:00,61.1,44.8,30.23,ENE,65,3.5,3.5,55,0.00,CLR,,0.00,WeatherDisplay:10.37,2013-02-22 20:28:00,
2013-02-22 12:33:00,61.2,44.4,30.23,NE,47,4.0,4.0,54,0.00,CLR,,0.00,WeatherDisplay:10.37,2013-02-22 20:33:00,
2013-02-22 12:38:00,60.8,43.6,30.23,NE,42,6.9,6.9,53,0.00,CLR,,0.00,WeatherDisplay:10.37,2013-02-22 20:38:00,
2013-02-22 12:43:00,60.9,44.1,30.23,NE,40,4.6,4.6,54,0.00,CLR,,0.00,WeatherDisplay:10.37,2013-02-22 20:43:00,
2013-02-22 12:48:00,61.5,43.2,30.23,NNE,29,6.0,6.0,51,0.00,CLR,,0.00,WeatherDisplay:10.37,2013-02-22 20:48:00,
2013-02-22 12:53:00,61.5,44.2,30.23,NNE,23,3.5,3.5,53,0.00,CLR,,0.00,WeatherDisplay:10.37,2013-02-22 20:53:00,
2013-02-22 12:58:00,62.0,43.1,30.22,NE,46,3.5,3.5,50,0.00,CLR,,0.00,WeatherDisplay:10.37,2013-02-22 20:58:00,
2013-02-22 13:03:00,62.3,42.9,30.22,WNW,300,4.6,4.6,49,0.00,CLR,,0.00,WeatherDisplay:10.37,2013-02-22 21:03:00,
2013-02-22 13:08:00,62.3,43.4,30.22,NE,53,5.8,5.8,50,0.00,CLR,,0.00,WeatherDisplay:10.37,2013-02-22 21:08:00,
2013-02-22 13:13:00,62.1,40.5,30.22,NE,53,8.1,8.1,45,0.00,CLR,,0.00,WeatherDisplay:10.37,2013-02-22 21:13:00,
2013-02-22 13:18:00,62.1,41.6,30.21,ENE,58,4.6,4.6,47,0.00,CLR,,0.00,WeatherDisplay:10.37,2013-02-22 21:18:00,
2013-02-22 13:23:00,62.1,41.1,30.21,NE,55,6.9,6.9,46,0.00,CLR,,0.00,WeatherDisplay:10.37,2013-02-22 21:23:00,
2013-02-22 13:28:00,62.2,42.3,30.21,North,9,3.5,3.5,48,0.00,CLR,,0.00,WeatherDisplay:10.37,2013-02-22 21:28:00,
2013-02-22 13:33:00,62.9,42.9,30.20,NNE,26,3.5,3.5,48,0.00,CLR,,0.00,WeatherDisplay:10.37,2013-02-22 21:33:00,
2013-02-22 13:38:00,63.3,40.4,30.20,NW,304,3.5,3.5,43,0.00,CLR,,0.00,WeatherDisplay:10.37,2013-02-22 21:38:00,
2013-02-22 13:43:00,64.0,42.2,30.20,NE,38,3.5,3.5,45,0.00,CLR,,0.00,WeatherDisplay:10.37,2013-02-22 21:43:00,
2013-02-22 13:48:00,63.8,42.6,30.19,WNW,290,3.5,3.5,46,0.00,CLR,,0.00,WeatherDisplay:10.37,2013-02-22 21:48:00,
2013-02-22 13:53:00,63.9,41.5,30.19,NE,41,3.5,3.5,44,0.00,CLR,,0.00,WeatherDisplay:10.37,2013-02-22 21:53:00,
2013-02-22 13:58:00,64.0,43.4,30.19,NE,55,6.0,6.0,47,0.00,CLR,,0.00,WeatherDisplay:10.37,2013-02-22 21:58:00,
2013-02-22 14:03:00,63.9,43.8,30.19,West,273,3.5,3.5,48,0.00,CLR,,0.00,WeatherDisplay:10.37,2013-02-22 22:03:00,
2013-02-22 14:08:00,64.4,44.3,30.19,NE,39,3.5,3.5,48,0.00,CLR,,0.00,WeatherDisplay:10.37,2013-02-22 22:08:00,
2013-02-22 14:13:00,64.3,42.5,30.19,ENE,62,3.5,3.5,45,0.00,CLR,,0.00,WeatherDisplay:10.37,2013-02-22 22:13:00,
2013-02-22 14:18:00,63.8,41.5,30.19,NNW,347,6.9,6.9,44,0.00,CLR,,0.00,WeatherDisplay:10.37,2013-02-22 22:18:00,
2013-02-22 14:23:00,63.5,41.2,30.18,NE,36,4.6,4.6,44,0.00,CLR,,0.00,WeatherDisplay:10.37,2013-02-22 22:23:00,
2013-02-22 14:28:00,63.4,42.2,30.18,North,349,3.5,3.5,46,0.00,CLR,,0.00,WeatherDisplay:10.37,2013-02-22 22:28:00,
2013-02-22 14:33:00,63.8,42.0,30.18,North,4,6.9,6.9,45,0.00,CLR,,0.00,WeatherDisplay:10.37,2013-02-22 22:33:00,
2013-02-22 14:38:00,63.7,41.4,30.18,West,259,3.5,3.5,44,0.00,CLR,,0.00,WeatherDisplay:10.37,2013-02-22 22:38:00,
2013-02-22 14:43:00,64.1,42.9,30.18,NE,46,2.0,2.0,46,0.00,CLR,,0.00,WeatherDisplay:10.37,2013-02-22 22:43:00,
2013-02-22 14:48:00,63.9,42.7,30.18,NNE,15,2.3,2.3,46,0.00,CLR,,0.00,WeatherDisplay:10.37,2013-02-22 22:48:00,
2013-02-22 14:53:00,64.2,41.8,30.19,NNE,13,3.5,3.5,44,0.00,CLR,,0.00,WeatherDisplay:10.37,2013-02-22 22:53:00,
2013-02-22 14:58:00,64.2,41.2,30.19,NNE,32,2.3,2.3,43,0.00,CLR,,0.00,WeatherDisplay:10.37,2013-02-22 22:58:00,
2013-02-22 15:03:00,64.3,41.3,30.19,NNE,20,3.5,3.5,43,0.00,CLR,,0.00,WeatherDisplay:10.37,2013-02-22 23:03:00,
2013-02-22 15:08:00,64.1,42.3,30.19,WNW,292,3.5,3.5,45,0.00,CLR,,0.00,WeatherDisplay:10.37,2013-02-22 23:08:00,
2013-02-22 15:13:00,64.2,43.0,30.19,NNE,29,5.8,5.8,46,0.00,CLR,,0.00,WeatherDisplay:10.37,2013-02-22 23:13:00,
2013-02-22 15:18:00,64.2,43.0,30.19,NW,319,3.5,3.5,46,0.00,CLR,,0.00,WeatherDisplay:10.37,2013-02-22 23:18:00,
2013-02-22 15:23:00,64.0,42.8,30.19,NE,47,3.5,3.5,46,0.00,CLR,,0.00,WeatherDisplay:10.37,2013-02-22 23:23:00,
2013-02-22 15:28:00,63.8,43.2,30.19,NE,42,5.0,5.0,47,0.00,CLR,,0.00,WeatherDisplay:10.37,2013-02-22 23:28:00,
2013-02-22 15:33:00,63.3,43.3,30.19,NE,42,3.5,3.5,48,0.00,CLR,,0.00,WeatherDisplay:10.37,2013-02-22 23:33:00,
2013-02-22 15:38:00,62.7,43.8,30.19,ESE,113,4.6,4.6,50,0.00,CLR,,0.00,WeatherDisplay:10.37,2013-02-22 23:38:00,
2013-02-22 15:43:00,62.3,44.4,30.19,NE,44,3.5,3.5,52,0.00,CLR,,0.00,WeatherDisplay:10.37,2013-02-22 23:43:00,
2013-02-22 15:48:00,62.4,45.5,30.18,NE,42,3.5,3.5,54,0.00,CLR,,0.00,WeatherDisplay:10.37,2013-02-22 23:48:00,
2013-02-22 15:53:00,62.2,45.3,30.18,NE,37,3.0,3.0,54,0.00,CLR,,0.00,WeatherDisplay:10.37,2013-02-22 23:53:00,
2013-02-22 15:58:00,62.0,46.1,30.18,ESE,117,3.5,3.5,56,0.00,CLR,,0.00,WeatherDisplay:10.37,2013-02-22 23:58:00,
2013-02-22 16:03:00,62.0,46.6,30.18,NNE,13,3.5,3.5,57,0.00,CLR,,0.00,WeatherDisplay:10.37,2013-02-23 00:03:00,
2013-02-22 16:08:00,61.9,47.0,30.18,NE,49,3.5,3.5,58,0.00,CLR,,0.00,WeatherDisplay:10.37,2013-02-23 00:08:00,
2013-02-22 16:13:00,61.9,46.5,30.18,NNE,28,3.0,3.0,57,0.00,CLR,,0.00,WeatherDisplay:10.37,2013-02-23 00:13:00,
2013-02-22 16:18:00,62.2,43.3,30.18,WNW,299,4.0,4.0,50,0.00,CLR,,0.00,WeatherDisplay:10.37,2013-02-23 00:18:00,
2013-02-22 16:23:00,63.0,38.3,30.18,West,273,5.0,5.0,40,0.00,CLR,,0.00,WeatherDisplay:10.37,2013-02-23 00:23:00,
2013-02-22 16:28:00,63.6,37.5,30.19,WSW,256,5.8,5.8,38,0.00,CLR,,0.00,WeatherDisplay:10.37,2013-02-23 00:28:00,
2013-02-22 16:33:00,63.9,37.1,30.19,WNW,300,4.0,4.0,37,0.00,CLR,,0.00,WeatherDisplay:10.37,2013-02-23 00:33:00,
2013-02-22 16:38:00,63.5,36.0,30.19,West,277,5.8,5.8,36,0.00,CLR,,0.00,WeatherDisplay:10.37,2013-02-23 00:38:00,
2013-02-22 16:43:00,62.9,35.5,30.19,West,276,6.9,6.9,36,0.00,CLR,,0.00,WeatherDisplay:10.37,2013-02-23 00:43:00,
2013-02-22 16:48:00,62.6,37.3,30.19,NW,308,3.5,3.5,39,0.00,CLR,,0.00,WeatherDisplay:10.37,2013-02-23 00:48:00,
2013-02-22 16:53:00,62.4,38.4,30.19,WNW,295,6.9,6.9,41,0.00,CLR,,0.00,WeatherDisplay:10.37,2013-02-23 00:53:00,
2013-02-22 16:58:00,62.0,41.5,30.19,WSW,240,2.3,2.3,47,0.00,CLR,,0.00,WeatherDisplay:10.37,2013-02-23 00:58:00,
2013-02-22 17:03:00,61.6,40.6,30.19,WNW,290,4.0,4.0,46,0.00,CLR,,0.00,WeatherDisplay:10.37,2013-02-23 01:03:00,
2013-02-22 17:08:00,60.9,40.5,30.19,West,266,3.5,3.5,47,0.00,CLR,,0.00,WeatherDisplay:10.37,2013-02-23 01:08:00,
2013-02-22 17:13:00,59.9,40.1,30.19,WNW,295,4.6,4.6,48,0.00,CLR,,0.00,WeatherDisplay:10.37,2013-02-23 01:13:00,
2013-02-22 17:18:00,59.2,40.6,30.20,North,6,2.0,2.0,50,0.00,CLR,,0.00,WeatherDisplay:10.37,2013-02-23 01:18:00,
2013-02-22 17:23:00,58.7,40.1,30.20,WSW,253,3.5,3.5,50,0.00,CLR,,0.00,WeatherDisplay:10.37,2013-02-23 01:23:00,
2013-02-22 17:28:00,58.2,40.1,30.20,NE,46,2.3,2.3,51,0.00,CLR,,0.00,WeatherDisplay:10.37,2013-02-23 01:28:00,
2013-02-22 17:33:00,57.8,39.8,30.20,North,349,2.3,2.3,51,0.00,CLR,,0.00,WeatherDisplay:10.37,2013-02-23 01:33:00,
2013-02-22 17:38:00,57.4,40.9,30.20,NNW,343,3.5,3.5,54,0.00,CLR,,0.00,WeatherDisplay:10.37,2013-02-23 01:38:00,
2013-02-22 17:43:00,56.9,40.9,30.20,NW,314,2.3,2.3,55,0.00,CLR,,0.00,WeatherDisplay:10.37,2013-02-23 01:43:00,
2013-02-22 17:48:00,56.5,41.0,30.20,NW,311,0.0,0.0,56,0.00,CLR,,0.00,WeatherDisplay:10.37,2013-02-23 01:48:00,
2013-02-22 17:53:00,55.9,41.3,30.20,NNE,23,2.0,2.0,58,0.00,CLR,,0.00,WeatherDisplay:10.37,2013-02-23 01:53:00,
2013-02-22 17:58:00,55.4,42.2,30.19,NE,40,1.2,1.2,61,0.00,CLR,,0.00,WeatherDisplay:10.37,2013-02-23 01:58:00,
2013-02-22 18:03:00,54.9,42.5,30.20,East,86,1.2,1.2,63,0.00,,,0.00,WeatherDisplay:10.37,2013-02-23 02:03:00,
2013-02-22 18:08:00,54.5,42.6,30.20,East,86,1.2,0.0,64,0.00,,,0.00,WeatherDisplay:10.37,2013-02-23 02:08:00,
2013-02-22 18:13:00,54.1,42.2,30.21,East,101,0.0,0.0,64,0.00,,,0.00,WeatherDisplay:10.37,2013-02-23 02:13:00,
2013-02-22 18:18:00,53.7,42.6,30.21,NE,43,1.2,0.0,66,0.00,,,0.00,WeatherDisplay:10.37,2013-02-23 02:18:00,
2013-02-22 18:23:00,53.3,42.6,30.21,NE,43,1.0,1.0,67,0.00,,,0.00,WeatherDisplay:10.37,2013-02-23 02:23:00,
2013-02-22 18:28:00,53.1,42.8,30.21,NE,44,0.0,0.0,68,0.00,,,0.00,WeatherDisplay:10.37,2013-02-23 02:28:00,
2013-02-22 18:33:00,52.8,42.5,30.20,East,86,0.0,0.0,68,0.00,,,0.00,WeatherDisplay:10.37,2013-02-23 02:33:00,
2013-02-22 18:38:00,52.5,42.6,30.21,East,98,0.0,0.0,69,0.00,,,0.00,WeatherDisplay:10.37,2013-02-23 02:38:00,
2013-02-22 18:43:00,52.2,42.3,30.21,East,99,0.0,0.0,69,0.00,,,0.00,WeatherDisplay:10.37,2013-02-23 02:43:00,
2013-02-22 18:48:00,52.0,42.5,30.21,ESE,105,0.0,0.0,70,0.00,,,0.00,WeatherDisplay:10.37,2013-02-23 02:48:00,
2013-02-22 18:53:00,51.9,42.8,30.21,East,101,0.0,0.0,71,0.00,,,0.00,WeatherDisplay:10.37,2013-02-23 02:53:00,
2013-02-22 18:58:00,51.7,43.0,30.21,WSW,257,2.3,2.3,72,0.00,,,0.00,WeatherDisplay:10.37,2013-02-23 02:58:00,
2013-02-22 19:03:00,51.6,42.9,30.22,WSW,257,0.0,0.0,72,0.00,,,0.00,WeatherDisplay:10.37,2013-02-23 03:03:00,
2013-02-22 19:08:00,51.3,42.6,30.22,WSW,257,0.0,0.0,72,0.00,,,0.00,WeatherDisplay:10.37,2013-02-23 03:08:00,
2013-02-22 19:13:00,51.0,42.6,30.22,West,259,0.0,0.0,73,0.00,,,0.00,WeatherDisplay:10.37,2013-02-23 03:13:00,
2013-02-22 19:18:00,50.7,42.7,30.22,West,259,0.0,0.0,74,0.00,,,0.00,WeatherDisplay:10.37,2013-02-23 03:18:00,
2013-02-22 19:23:00,50.5,42.9,30.23,WSW,255,0.0,0.0,75,0.00,,,0.00,WeatherDisplay:10.37,2013-02-23 03:23:00,
2013-02-22 19:28:00,50.4,43.1,30.23,WSW,255,0.0,0.0,76,0.00,,,0.00,WeatherDisplay:10.37,2013-02-23 03:28:00,
2013-02-22 19:33:00,50.3,43.0,30.23,WSW,254,0.0,0.0,76,0.00,,,0.00,WeatherDisplay:10.37,2013-02-23 03:33:00,
2013-02-22 19:38:00,50.0,43.1,30.23,WSW,253,0.0,0.0,77,0.00,,,0.00,WeatherDisplay:10.37,2013-02-23 03:38:00,
2013-02-22 19:43:00,49.8,42.9,30.24,WSW,253,0.0,0.0,77,0.00,,,0.00,WeatherDisplay:10.37,2013-02-23 03:43:00,
2013-02-22 19:48:00,49.6,43.0,30.24,WSW,253,0.0,0.0,78,0.00,,,0.00,WeatherDisplay:10.37,2013-02-23 03:48:00,
2013-02-22 19:53:00,49.5,42.9,30.24,SW,214,0.0,0.0,78,0.00,,,0.00,WeatherDisplay:10.37,2013-02-23 03:53:00,
2013-02-22 19:58:00,49.4,43.2,30.24,South,179,0.0,0.0,79,0.00,CLR,,0.00,WeatherDisplay:10.37,2013-02-23 03:58:00,
2013-02-22 20:03:00,49.3,43.1,30.24,South,177,0.0,0.0,79,0.00,CLR,,0.00,WeatherDisplay:10.37,2013-02-23 04:03:00,
2013-02-22 20:08:00,49.1,42.9,30.24,South,177,0.0,0.0,79,0.00,CLR,,0.00,WeatherDisplay:10.37,2013-02-23 04:08:00,
2013-02-22 20:13:00,48.9,42.7,30.24,South,177,0.0,0.0,79,0.00,CLR,,0.00,WeatherDisplay:10.37,2013-02-23 04:13:00,
2013-02-22 20:18:00,48.7,42.5,30.24,South,178,0.0,0.0,79,0.00,CLR,,0.00,WeatherDisplay:10.37,2013-02-23 04:18:00,
2013-02-22 20:23:00,48.5,42.6,30.25,South,177,0.0,0.0,80,0.00,CLR,,0.00,WeatherDisplay:10.37,2013-02-23 04:23:00,
2013-02-22 20:28:00,48.3,42.4,30.24,South,176,0.0,0.0,80,0.00,CLR,,0.00,WeatherDisplay:10.37,2013-02-23 04:28:00,
2013-02-22 20:33:00,48.2,42.6,30.24,South,181,0.0,0.0,81,0.00,CLR,,0.00,WeatherDisplay:10.37,2013-02-23 04:33:00,
2013-02-22 20:38:00,48.1,42.5,30.23,South,180,0.0,0.0,81,0.00,CLR,,0.00,WeatherDisplay:10.37,2013-02-23 04:38:00,
2013-02-22 20:43:00,48.1,42.5,30.23,South,176,0.0,0.0,81,0.00,CLR,,0.00,WeatherDisplay:10.37,2013-02-23 04:43:00,
2013-02-22 20:48:00,48.2,43.0,30.23,South,185,0.0,0.0,82,0.00,CLR,,0.00,WeatherDisplay:10.37,2013-02-23 04:48:00,
2013-02-22 20:53:00,48.5,43.3,30.23,South,184,0.0,0.0,82,0.00,CLR,,0.00,WeatherDisplay:10.37,2013-02-23 04:53:00,
2013-02-22 20:58:00,48.4,42.8,30.23,South,184,0.0,0.0,81,0.00,,,0.00,WeatherDisplay:10.37,2013-02-23 04:58:00,
2013-02-22 21:00:00,48.4,42.8,30.22,South,184,0.0,0.0,81,0.00,,,0.00,WeatherDisplay:10.37,2013-02-23 05:00:00,
2013-02-22 21:05:00,48.3,43.1,30.23,South,184,0.0,0.0,82,0.00,,,0.00,WeatherDisplay:10.37,2013-02-23 05:05:00,
2013-02-22 21:10:00,48.1,42.9,30.23,South,184,0.0,0.0,82,0.00,,,0.00,WeatherDisplay:10.37,2013-02-23 05:10:00,
2013-02-22 21:15:00,48.3,43.4,30.23,South,184,0.0,0.0,83,0.00,,,0.00,WeatherDisplay:10.37,2013-02-23 05:15:00,
2013-02-22 21:20:00,48.2,43.3,30.23,South,184,0.0,0.0,83,0.00,,,0.00,WeatherDisplay:10.37,2013-02-23 05:20:00,
2013-02-22 21:25:00,48.3,43.7,30.24,South,186,1.2,1.2,84,0.00,,,0.00,WeatherDisplay:10.37,2013-02-23 05:25:00,
2013-02-22 21:30:00,48.5,44.2,30.25,South,186,0.0,0.0,85,0.00,,,0.00,WeatherDisplay:10.37,2013-02-23 05:30:00,
2013-02-22 21:35:00,48.8,44.5,30.25,SSE,167,1.2,1.2,85,0.00,,,0.00,WeatherDisplay:10.37,2013-02-23 05:35:00,
2013-02-22 21:40:00,48.8,44.2,30.25,South,187,1.0,1.0,84,0.00,,,0.00,WeatherDisplay:10.37,2013-02-23 05:40:00,
2013-02-22 21:45:00,48.9,44.6,30.26,South,187,0.0,0.0,85,0.00,,,0.00,WeatherDisplay:10.37,2013-02-23 05:45:00,
2013-02-22 21:50:00,49.0,44.4,30.26,South,183,1.2,0.0,84,0.00,,,0.00,WeatherDisplay:10.37,2013-02-23 05:50:00,
2013-02-22 21:55:00,49.0,44.4,30.27,SSW,197,2.3,0.0,84,0.00,,,0.00,WeatherDisplay:10.37,2013-02-23 05:55:00,
2013-02-22 22:00:00,48.9,44.3,30.27,SSW,195,0.0,0.0,84,0.00,CLR,,0.00,WeatherDisplay:10.37,2013-02-23 06:00:00,
2013-02-22 22:05:00,48.8,44.2,30.27,SSW,195,0.0,0.0,84,0.00,CLR,,0.00,WeatherDisplay:10.37,2013-02-23 06:05:00,
2013-02-22 22:10:00,48.7,44.1,30.27,SSW,195,0.0,0.0,84,0.00,CLR,,0.00,WeatherDisplay:10.37,2013-02-23 06:10:00,
2013-02-22 22:15:00,48.6,44.0,30.27,SSW,197,1.0,1.0,84,0.00,CLR,,0.00,WeatherDisplay:10.37,2013-02-23 06:15:00,
2013-02-22 22:20:00,48.6,44.3,30.26,South,173,1.2,1.2,85,0.00,CLR,,0.00,WeatherDisplay:10.37,2013-02-23 06:20:00,
2013-02-22 22:25:00,48.8,44.5,30.27,SSW,193,1.2,1.2,85,0.00,CLR,,0.00,WeatherDisplay:10.37,2013-02-23 06:25:00,
2013-02-22 22:30:00,48.9,44.6,30.27,SSW,194,1.2,1.2,85,0.00,CLR,,0.00,WeatherDisplay:10.37,2013-02-23 06:30:00,
2013-02-22 22:35:00,49.1,44.5,30.26,SSW,193,0.0,0.0,84,0.00,CLR,,0.00,WeatherDisplay:10.37,2013-02-23 06:35:00,
2013-02-22 22:40:00,49.2,44.6,30.26,SSW,194,0.0,0.0,84,0.00,CLR,,0.00,WeatherDisplay:10.37,2013-02-23 06:40:00,
2013-02-22 22:45:00,49.3,44.7,30.27,SSW,194,0.0,0.0,84,0.00,CLR,,0.00,WeatherDisplay:10.37,2013-02-23 06:45:00,
2013-02-22 22:50:00,49.3,44.7,30.27,SSW,194,0.0,0.0,84,0.00,CLR,,0.00,WeatherDisplay:10.37,2013-02-23 06:50:00,
2013-02-22 22:55:00,49.4,44.8,30.27,SSW,194,0.0,0.0,84,0.00,CLR,,0.00,WeatherDisplay:10.37,2013-02-23 06:55:00,
2013-02-22 23:00:00,49.4,44.8,30.27,SSW,194,0.0,0.0,84,0.00,,,0.00,WeatherDisplay:10.37,2013-02-23 07:00:00,
2013-02-22 23:05:00,49.5,44.9,30.27,SSW,194,0.0,0.0,84,0.00,,,0.00,WeatherDisplay:10.37,2013-02-23 07:05:00,
2013-02-22 23:10:00,49.5,44.9,30.27,SSW,194,0.0,0.0,84,0.00,,,0.00,WeatherDisplay:10.37,2013-02-23 07:10:00,
2013-02-22 23:15:00,49.6,45.0,30.27,SSW,194,0.0,0.0,84,0.00,,,0.00,WeatherDisplay:10.37,2013-02-23 07:15:00,
2013-02-22 23:20:00,49.6,45.0,30.27,SSW,194,0.0,0.0,84,0.00,,,0.00,WeatherDisplay:10.37,2013-02-23 07:20:00,
2013-02-22 23:25:00,49.5,44.9,30.27,SSE,163,0.0,0.0,84,0.00,,,0.00,WeatherDisplay:10.37,2013-02-23 07:25:00,
2013-02-22 23:30:00,49.4,44.5,30.27,SSE,163,0.0,0.0,83,0.00,,,0.00,WeatherDisplay:10.37,2013-02-23 07:30:00,
2013-02-22 23:35:00,49.2,44.3,30.27,SSE,163,0.0,0.0,83,0.00,,,0.00,WeatherDisplay:10.37,2013-02-23 07:35:00,
2013-02-22 23:40:00,49.0,44.1,30.27,SSE,163,0.0,0.0,83,0.00,,,0.00,WeatherDisplay:10.37,2013-02-23 07:40:00,
2013-02-22 23:45:00,48.7,44.1,30.27,SSE,163,0.0,0.0,84,0.00,,,0.00,WeatherDisplay:10.37,2013-02-23 07:45:00,
2013-02-22 23:50:00,48.5,43.9,30.27,SSE,163,0.0,0.0,84,0.00,,,0.00,WeatherDisplay:10.37,2013-02-23 07:50:00,
2013-02-22 23:55:00,48.1,43.5,30.27,SSE,163,0.0,0.0,84,0.00,,,0.00,WeatherDisplay:10.37,2013-02-23 07:55:00,